NI4CE-10 Weather Reports


time (UTC)temp
C
wind
direction
speed
KPH
gust
KPH
rain 1hr
cm
rain 24hr
cm
rain mn
cm
humidity
%
barometer
mb
20260906053734 26 171 0.0 0.0 0.00 0.00 0.00 100 1015.2
20260906053234 26 171 0.0 0.0 0.00 0.00 0.00 100 1015.2
20260906052734 26 171 0.0 0.0 0.00 0.00 0.00 100 1015.1
20260906052500 26 171 0.0 0.0 0.00 0.00 0.00 100 1015.1
20260906052234 26 171 0.0 0.0 0.00 0.00 0.00 100 1015.1
20260906051734 26 171 0.0 0.0 0.00 0.00 0.00 100 1015.0
20260906051234 26 171 0.0 0.0 0.00 0.00 0.00 100 1014.9
20260906050734 26 171 0.0 0.0 0.00 0.00 0.00 100 1015.0
20260906050500 26 171 0.0 0.0 0.00 0.00 0.00 100 1015.0
20260906050234 26 171 0.0 0.0 0.00 0.00 0.00 100 1015.0
20260906045734 26 171 0.0 0.0 0.00 0.00 0.00 100 1015.0
20260906045234 26 171 0.0 0.0 0.00 0.00 0.00 100 1014.9
20260906044734 26 171 0.0 0.0 0.00 0.00 0.00 100 1015.0
20260906044234 26 171 0.0 0.0 0.00 0.00 0.00 100 1015.0
20260906043734 26 171 0.0 3.2 0.00 0.00 0.00 100 1014.9
20260906043234 26 209 1.6 3.2 0.00 0.00 0.00 100 1014.9
20260906042734 26 187 1.6 3.2 0.00 0.00 0.00 100 1015.0
20260906042234 26 223 0.0 0.0 0.00 0.00 0.00 100 1015.0
20260906041734 27 223 0.0 0.0 0.00 0.00 0.00 100 1015.2
20260906041234 27 223 0.0 0.0 0.00 0.00 0.00 100 1015.2
20260906040734 27 223 0.0 0.0 0.00 0.00 0.00 100 1015.3
20260906040234 27 223 0.0 0.0 0.00 0.00 0.00 100 1015.5
20260906040015 27 223 0.0 3.2 0.00 0.00 0.00 100 1015.4
20260906035734 27 223 0.0 3.2 0.00 0.00 0.00 100 1015.4
20260906035234 27 175 0.0 4.8 0.00 0.00 0.00 100 1015.5
20260906034940 27 158 0.0 3.2 0.00 0.00 0.00 100 1015.6
20260906034734 27 158 0.0 3.2 0.00 0.00 0.00 100 1015.6
20260906034234 27 205 1.6 4.8 0.00 0.00 0.00 100 1015.7
20260906033939 27 78 0.0 4.8 0.00 0.00 0.00 100 1015.7
20260906033734 27 78 0.0 4.8 0.00 0.00 0.00 100 1015.7
20260906033425 27 150 3.2 8.0 0.00 0.00 0.00 100 1015.7
20260906033234 27 150 3.2 8.0 0.00 0.00 0.00 100 1015.7
20260906032734 27 178 0.0 3.2 0.00 0.00 0.00 100 1015.7
20260906032438 27 151 0.0 3.2 0.00 0.00 0.00 100 1015.6
20260906032235 27 151 0.0 3.2 0.00 0.00 0.00 100 1015.6
20260906031735 27 151 3.2 4.8 0.00 0.00 0.00 100 1015.6
20260906031235 27 168 3.2 6.4 0.00 0.00 0.00 100 1015.6
20260906030850 27 146 3.2 6.4 0.00 0.00 0.00 100 1015.6
20260906030735 27 146 3.2 6.4 0.00 0.00 0.00 100 1015.6
20260906030235 27 146 3.2 8.0 0.00 0.00 0.00 100 1015.6
20260906025735 27 94 4.8 9.7 0.00 0.00 0.00 100 1015.6
20260906025405 27 344 0.0 0.0 0.00 0.00 0.00 100 1015.6
20260906025235 27 344 0.0 0.0 0.00 0.00 0.00 100 1015.6
20260906024938 27 344 0.0 0.0 0.00 0.00 0.00 100 1015.6
20260906024735 27 344 0.0 0.0 0.00 0.00 0.00 100 1015.6
20260906024235 27 344 0.0 0.0 0.00 0.00 0.00 100 1015.6
20260906023735 27 344 0.0 0.0 0.00 0.00 0.00 100 1015.7
20260906023443 27 344 0.0 0.0 0.00 0.00 0.00 100 1015.7
20260906023235 27 344 0.0 0.0 0.00 0.00 0.00 100 1015.7
20260906022943 27 344 0.0 0.0 0.00 0.00 0.00 100 1015.7
20260906022735 27 344 0.0 0.0 0.00 0.00 0.00 100 1015.7
20260906022501 27 344 0.0 0.0 0.00 0.00 0.00 100 1015.7
20260906022235 27 344 0.0 0.0 0.00 0.00 0.00 100 1015.7
20260906021735 27 344 0.0 0.0 0.00 0.00 0.00 100 1015.8
20260906021523 27 344 0.0 0.0 0.00 0.00 0.00 100 1015.9
20260906021235 27 344 0.0 0.0 0.00 0.00 0.00 100 1015.8
20260906021011 27 344 0.0 0.0 0.00 0.00 0.00 100 1015.9
20260906020735 27 344 0.0 0.0 0.00 0.00 0.00 100 1015.9
20260906020505 27 344 0.0 0.0 0.00 0.00 0.00 100 1015.9
20260906020235 27 344 0.0 0.0 0.00 0.00 0.00 100 1015.9
20260906015946 27 344 0.0 0.0 0.00 0.00 0.00 100 1015.8
20260906015735 27 344 0.0 0.0 0.00 0.00 0.00 100 1015.8
20260906015235 27 344 0.0 0.0 0.00 0.00 0.00 100 1015.7
20260906015015 27 344 0.0 0.0 0.00 0.00 0.00 100 1015.7
20260906014735 27 344 0.0 0.0 0.00 0.00 0.00 100 1015.7
20260906014235 27 344 0.0 0.0 0.00 0.00 0.00 100 1015.6
20260906014018 27 344 0.0 0.0 0.00 0.00 0.00 100 1015.5
20260906013735 27 344 0.0 0.0 0.00 0.00 0.00 100 1015.5
20260906013555 27 344 0.0 0.0 0.00 0.00 0.00 100 1015.5
20260906013235 27 344 0.0 0.0 0.00 0.00 0.00 100 1015.5
20260906012735 28 344 0.0 0.0 0.00 0.00 0.00 100 1015.5
20260906012235 28 344 0.0 0.0 0.00 0.00 0.00 100 1015.4
20260906011959 28 344 0.0 0.0 0.00 0.00 0.00 100 1015.2
20260906011735 28 344 0.0 0.0 0.00 0.00 0.00 100 1015.2
20260906011501 28 344 0.0 0.0 0.00 0.00 0.00 100 1015.1
20260906011235 28 344 0.0 0.0 0.00 0.00 0.00 100 1015.1
20260906010735 28 344 0.0 0.0 0.00 0.00 0.00 100 1015.2
20260906010235 28 344 0.0 0.0 0.00 0.00 0.00 100 1015.1
20260906005735 28 344 0.0 0.0 0.00 0.00 0.00 100 1015.0
20260906005235 28 344 0.0 0.0 0.00 0.00 0.00 100 1014.9
20260906004735 28 344 0.0 0.0 0.00 0.00 0.00 100 1014.9
20260906004235 28 344 0.0 0.0 0.00 0.00 0.00 100 1015.0
20260906003735 28 344 0.0 0.0 0.00 0.00 0.00 100 1014.9
20260906003235 28 344 0.0 0.0 0.00 0.00 0.00 100 1015.0
20260906002735 28 344 0.0 0.0 0.00 0.00 0.00 100 1015.2
20260906002235 29 344 0.0 0.0 0.00 0.00 0.00 100 1015.0
20260906001958 29 344 0.0 0.0 0.00 0.00 0.00 100 1015.1
20260906001735 29 344 0.0 0.0 0.00 0.00 0.00 100 1015.1
20260906001235 29 344 0.0 0.0 0.00 0.00 0.00 100 1015.1
20260906000735 29 344 0.0 0.0 0.00 0.00 0.00 100 1015.1
20260906000235 30 344 0.0 0.0 0.00 0.00 0.00 100 1015.0
20260905235735 30 344 0.0 3.2 0.00 0.00 0.00 100 1015.0
20260905235235 30 268 0.0 4.8 0.00 0.00 0.00 100 1015.0
20260905234735 30 313 1.6 4.8 0.00 0.00 0.00 100 1015.0
20260905234235 30 354 0.0 6.4 0.00 0.00 0.00 100 1014.8
20260905233928 30 310 0.0 4.8 0.00 0.00 0.00 100 1014.7
20260905233735 30 310 0.0 4.8 0.00 0.00 0.00 100 1014.7
20260905233235 30 289 1.6 9.7 0.00 0.00 0.00 100 1014.7
20260905232736 31 352 8.0 9.7 0.00 0.00 0.00 100 1014.6
20260905232236 31 345 4.8 12.9 0.00 0.00 0.00 100 1014.6
20260905231736 31 358 6.4 12.9 0.00 0.00 0.00 100 1014.6
20260905231236 31 336 11.3 11.3 0.00 0.00 0.00 100 1014.7
20260905230736 31 323 4.8 9.7 0.00 0.00 0.00 100 1014.8
20260905230236 31 354 1.6 16.1 0.00 0.00 0.00 100 1014.9
20260905225736 31 281 3.2 14.5 0.00 0.00 0.00 100 1014.9
20260905225236 31 338 6.4 16.1 0.00 0.00 0.00 100 1014.8
20260905224736 32 357 9.7 16.1 0.00 0.00 0.00 100 1014.9
20260905224520 32 348 6.4 17.7 0.00 0.00 0.00 100 1014.8
20260905224236 32 348 6.4 17.7 0.00 0.00 0.00 100 1014.8
20260905223736 32 330 8.0 16.1 0.00 0.00 0.00 100 1014.6
20260905223451 32 327 9.7 11.3 0.00 0.00 0.00 100 1014.7
20260905223236 32 327 9.7 11.3 0.00 0.00 0.00 100 1014.7
20260905222736 32 326 11.3 16.1 0.00 0.00 0.00 100 1014.7
20260905222455 32 19 8.0 17.7 0.00 0.00 0.00 100 1014.6
20260905222236 32 19 8.0 17.7 0.00 0.00 0.00 100 1014.6
20260905221736 32 341 12.9 17.7 0.00 0.00 0.00 100 1014.6
20260905221236 32 358 12.9 20.9 0.00 0.00 0.00 100 1014.5
20260905220736 32 338 14.5 22.5 0.00 0.00 0.00 100 1014.6
20260905220546 32 334 4.8 16.1 0.00 0.00 0.00 100 1014.6
20260905220236 32 334 4.8 16.1 0.00 0.00 0.00 100 1014.6
20260905215736 33 15 3.2 22.5 0.00 0.00 0.00 100 1014.5
20260905215236 33 334 9.7 16.1 0.00 0.00 0.00 100 1014.4
20260905215008 33 312 11.3 14.5 0.00 0.00 0.00 100 1014.4
20260905214736 33 312 11.3 14.5 0.00 0.00 0.00 100 1014.4
20260905214236 33 337 8.0 14.5 0.00 0.00 0.00 100 1014.4
20260905213736 33 14 3.2 19.3 0.00 0.00 0.00 100 1014.4
20260905213236 33 317 9.7 17.7 0.00 0.00 0.00 100 1014.2
20260905212736 34 330 12.9 24.1 0.00 0.00 0.00 100 1014.2
20260905212236 34 315 8.0 25.7 0.00 0.00 0.00 100 1014.2
20260905212029 34 303 14.5 14.5 0.00 0.00 0.00 100 1014.3
20260905211736 34 303 14.5 14.5 0.00 0.00 0.00 100 1014.3
20260905211236 34 331 11.3 17.7 0.00 0.00 0.00 100 1014.3
20260905210736 34 295 6.4 14.5 0.00 0.00 0.00 100 1014.4
20260905210236 34 319 6.4 24.1 0.00 0.00 0.00 100 1014.4
20260905210040 34 286 14.5 20.9 0.00 0.00 0.00 100 1014.4
20260905205737 34 286 14.5 20.9 0.00 0.00 0.00 100 1014.4
20260905205236 34 299 8.0 19.3 0.00 0.00 0.00 100 1014.4
20260905204736 34 279 4.8 16.1 0.00 0.00 0.00 100 1014.3
20260905204236 34 333 11.3 17.7 0.00 0.00 0.00 100 1014.3
20260905203736 34 293 8.0 19.3 0.00 0.00 0.00 100 1014.3
20260905203236 34 309 8.0 22.5 0.00 0.00 0.00 100 1014.3
20260905203125 34 309 12.9 22.5 0.00 0.00 0.00 100 1014.1
20260905202736 34 309 12.9 22.5 0.00 0.00 0.00 100 1014.1
20260905202236 35 313 22.5 22.5 0.00 0.00 0.00 100 1014.2
20260905201736 35 254 3.2 20.9 0.00 0.00 0.00 100 1014.2
20260905201236 35 295 6.4 16.1 0.00 0.00 0.00 100 1014.2
20260905201028 35 9 6.4 22.5 0.00 0.00 0.00 100 1014.2
20260905200736 35 9 6.4 22.5 0.00 0.00 0.00 100 1014.2
20260905200627 35 298 17.7 24.1 0.00 0.00 0.00 100 1014.3
20260905200236 35 298 17.7 24.1 0.00 0.00 0.00 100 1014.3
20260905200107 35 305 6.4 17.7 0.00 0.00 0.00 100 1014.3
20260905195736 35 305 6.4 17.7 0.00 0.00 0.00 100 1014.3
20260905195624 35 270 9.7 19.3 0.00 0.00 0.00 100 1014.4
20260905195236 35 270 9.7 19.3 0.00 0.00 0.00 100 1014.4
20260905195141 35 250 4.8 20.9 0.00 0.00 0.00 100 1014.4
20260905194736 35 250 4.8 20.9 0.00 0.00 0.00 100 1014.4
20260905194236 35 281 12.9 12.9 0.00 0.00 0.00 100 1014.4
20260905193736 36 336 9.7 20.9 0.00 0.00 0.00 100 1014.5
20260905193612 36 310 14.5 19.3 0.00 0.00 0.00 100 1014.6
20260905193236 36 310 14.5 19.3 0.00 0.00 0.00 100 1014.6
20260905193117 36 12 9.7 19.3 0.00 0.00 0.00 100 1014.6
20260905192737 36 12 9.7 19.3 0.00 0.00 0.00 100 1014.6
20260905192507 36 293 4.8 19.3 0.00 0.00 0.00 100 1014.7
20260905192237 36 293 4.8 19.3 0.00 0.00 0.00 100 1014.7
20260905192114 36 270 17.7 22.5 0.00 0.00 0.00 100 1014.9
20260905191737 36 270 17.7 22.5 0.00 0.00 0.00 100 1014.9
20260905191237 36 285 19.3 19.3 0.00 0.00 0.00 100 1014.9
20260905191147 37 274 8.0 22.5 0.00 0.00 0.00 100 1014.9
20260905190737 37 274 8.0 22.5 0.00 0.00 0.00 100 1014.9
20260905190628 37 322 12.9 17.7 0.00 0.00 0.00 100 1014.9
20260905190237 37 322 12.9 17.7 0.00 0.00 0.00 100 1014.9
20260905190016 37 270 8.0 16.1 0.00 0.00 0.00 100 1015.0
20260905185737 37 270 8.0 16.1 0.00 0.00 0.00 100 1015.0
20260905185657 37 340 11.3 17.7 0.00 0.00 0.00 100 1015.0
20260905185243 37 347 14.5 14.5 0.00 0.00 0.00 100 1015.1
20260905185237 37 340 11.3 17.7 0.00 0.00 0.00 100 1015.0
20260905184737 37 347 14.5 14.5 0.00 0.00 0.00 100 1015.1
20260905184237 38 322 8.0 20.9 0.00 0.00 0.00 100 1015.1
20260905183737 38 324 4.8 17.7 0.00 0.00 0.00 100 1015.0
20260905183258 40 306 6.4 17.7 0.00 0.00 0.00 100 1015.1
20260905183237 38 288 8.0 17.7 0.00 0.00 0.00 100 1015.0
20260905182737 40 306 6.4 17.7 0.00 0.00 0.00 100 1015.1
20260905182619 41 284 3.2 17.7 0.00 0.00 0.00 100 1015.1
20260905182237 41 284 3.2 17.7 0.00 0.00 0.00 100 1015.1
20260905182012 42 299 8.0 17.7 0.00 0.00 0.00 100 1015.3
20260905181737 42 299 8.0 17.7 0.00 0.00 0.00 100 1015.3
20260905181530 42 322 9.7 22.5 0.00 0.00 0.00 100 1015.3
20260905181237 42 322 9.7 22.5 0.00 0.00 0.00 100 1015.3
20260905181111 47 258 4.8 22.5 0.00 0.00 0.00 100 1015.3
20260905180737 47 258 4.8 22.5 0.00 0.00 0.00 100 1015.3
20260905180638 48 241 14.5 14.5 0.00 0.00 0.00 100 1015.2
20260905180237 48 241 14.5 14.5 0.00 0.00 0.00 100 1015.2
20260905175737 48 300 8.0 19.3 0.00 0.00 0.00 100 1015.4
20260905175529 45 267 4.8 16.1 0.00 0.00 0.00 100 1015.4
20260905175237 45 267 4.8 16.1 0.00 0.00 0.00 100 1015.4
20260905174737 45 253 12.9 17.7 0.00 0.00 0.00 100 1015.4
20260905174237 50 277 6.4 9.7 0.00 0.00 0.00 100 1015.3
20260905174027 52 239 8.0 16.1 0.00 0.00 0.00 100 1015.5
20260905173737 52 239 8.0 16.1 0.00 0.00 0.00 100 1015.5
20260905173531 53 258 12.9 14.5 0.00 0.00 0.00 100 1015.6
20260905173237 53 258 12.9 14.5 0.00 0.00 0.00 100 1015.6
20260905172737 53 337 0.0 12.9 0.00 0.00 0.00 100 1015.6
20260905172635 53 260 4.8 14.5 0.00 0.00 0.00 100 1015.7
20260905172237 53 260 4.8 14.5 0.00 0.00 0.00 100 1015.7
20260905171737 52 271 11.3 16.1 0.00 0.00 0.00 100 1015.8
20260905171237 52 274 6.4 16.1 0.00 0.00 0.00 100 1016.0
20260905170941 48 222 8.0 16.1 0.00 0.00 0.00 100 1016.0
20260905170737 48 222 8.0 16.1 0.00 0.00 0.00 100 1016.0
20260905170504 52 268 9.7 16.1 0.00 0.00 0.00 100 1016.2
20260905170238 52 268 9.7 16.1 0.00 0.00 0.00 100 1016.2
20260905165737 50 286 8.0 16.1 0.00 0.00 0.00 100 1016.2
20260905165629 46 279 0.0 14.5 0.00 0.00 0.00 100 1016.2
20260905165237 46 279 0.0 14.5 0.00 0.00 0.00 100 1016.2
20260905165012 51 281 4.8 16.1 0.00 0.00 0.00 100 1016.2
20260905165002 38 135 0.0 6.4 0.00 0.00 0.00 100 1016.6
20260905164737 51 281 4.8 16.1 0.00 0.00 0.00 100 1016.2
20260905164528 48 240 12.9 17.7 0.00 0.00 0.00 100 1016.4
20260905164237 48 240 12.9 17.7 0.00 0.00 0.00 100 1016.4
20260905163957 45 257 3.2 11.3 0.00 0.00 0.00 100 1016.4
20260905163737 45 257 3.2 11.3 0.00 0.00 0.00 100 1016.4
20260905163237 42 244 11.3 16.1 0.00 0.00 0.00 100 1016.4
20260905163041 48 274 1.6 14.5 0.00 0.00 0.00 100 1016.3
20260905162737 48 274 1.6 14.5 0.00 0.00 0.00 100 1016.3
20260905162453 40 312 8.0 12.9 0.00 0.00 0.00 100 1016.4
20260905162237 40 312 8.0 12.9 0.00 0.00 0.00 100 1016.4
20260905161737 41 306 1.6 12.9 0.00 0.00 0.00 100 1016.4
20260905161530 48 286 6.4 14.5 0.00 0.00 0.00 100 1016.4
20260905161237 48 286 6.4 14.5 0.00 0.00 0.00 100 1016.4
20260905160944 48 180 4.8 11.3 0.00 0.00 0.00 100 1016.5
20260905160737 48 180 4.8 11.3 0.00 0.00 0.00 100 1016.5
20260905160611 47 243 8.0 12.9 0.00 0.00 0.00 100 1016.7
20260905160237 47 243 8.0 12.9 0.00 0.00 0.00 100 1016.7
20260905160026 46 286 0.0 14.5 0.00 0.00 0.00 100 1016.8
20260905155737 46 286 0.0 14.5 0.00 0.00 0.00 100 1016.8
20260905155532 45 216 6.4 8.0 0.00 0.00 0.00 100 1016.7
20260905155237 45 216 6.4 8.0 0.00 0.00 0.00 100 1016.7
20260905155029 36 251 6.4 16.1 0.00 0.00 0.00 100 1016.8
20260905154737 36 251 6.4 16.1 0.00 0.00 0.00 100 1016.8
20260905154237 41 244 14.5 16.1 0.00 0.00 0.00 100 1016.8
20260905153737 42 258 0.0 0.0 0.00 0.00 0.00 100 1016.7
20260905153519 37 258 0.0 6.4 0.00 0.00 0.00 100 1016.7
20260905153237 37 258 0.0 6.4 0.00 0.00 0.00 100 1016.7
20260905152738 33 225 1.6 11.3 0.00 0.00 0.00 100 1016.8
20260905152238 34 215 6.4 9.7 0.00 0.00 0.00 100 1016.8
20260905152012 35 270 3.2 8.0 0.00 0.00 0.00 100 1016.9
20260905151738 35 270 3.2 8.0 0.00 0.00 0.00 100 1016.9
20260905151524 36 310 3.2 6.4 0.00 0.00 0.00 100 1016.9
20260905151238 36 310 3.2 6.4 0.00 0.00 0.00 100 1016.9
20260905151027 38 209 3.2 6.4 0.00 0.00 0.00 100 1016.8
20260905150738 38 209 3.2 6.4 0.00 0.00 0.00 100 1016.8
20260905150527 38 208 1.6 8.0 0.00 0.00 0.00 100 1016.8
20260905150238 38 208 1.6 8.0 0.00 0.00 0.00 100 1016.8
20260905145738 36 189 4.8 8.0 0.00 0.00 0.00 100 1016.8
20260905145441 36 270 4.8 11.3 0.00 0.00 0.00 100 1016.7
20260905145238 36 270 4.8 11.3 0.00 0.00 0.00 100 1016.7
20260905144946 38 277 8.0 12.9 0.00 0.00 0.00 100 1016.7
20260905144738 38 277 8.0 12.9 0.00 0.00 0.00 100 1016.7
20260905144238 37 209 11.3 14.5 0.00 0.00 0.00 100 1016.7
20260905144009 36 270 3.2 11.3 0.00 0.00 0.00 100 1016.6
20260905143738 36 270 3.2 11.3 0.00 0.00 0.00 100 1016.6
20260905143238 37 326 4.8 9.7 0.00 0.00 0.00 100 1016.7
20260905143037 37 119 1.6 6.4 0.00 0.00 0.00 100 1016.7
20260905142738 37 119 1.6 6.4 0.00 0.00 0.00 100 1016.7
20260905142613 37 344 1.6 6.4 0.00 0.00 0.00 100 1016.6
20260905142238 37 344 1.6 6.4 0.00 0.00 0.00 100 1016.6
20260905142007 37 258 3.2 9.7 0.00 0.00 0.00 100 1016.6
20260905141738 37 258 3.2 9.7 0.00 0.00 0.00 100 1016.6
20260905141238 37 232 8.0 9.7 0.00 0.00 0.00 100 1016.6
20260905141037 38 244 6.4 9.7 0.00 0.00 0.00 100 1016.6
20260905140738 38 244 6.4 9.7 0.00 0.00 0.00 100 1016.6
20260905140238 38 255 8.0 8.0 0.00 0.00 0.00 100 1016.6
20260905140002 38 160 0.0 4.8 0.00 0.00 0.00 100 1016.7
20260905135738 38 160 0.0 4.8 0.00 0.00 0.00 100 1016.7
20260905135419 39 227 4.8 4.8 0.00 0.00 0.00 100 1016.6
20260905135238 39 227 4.8 4.8 0.00 0.00 0.00 100 1016.6
20260905134950 38 153 0.0 4.8 0.00 0.00 0.00 100 1016.6
20260905134738 38 153 0.0 4.8 0.00 0.00 0.00 100 1016.6
20260905134238 38 92 3.2 8.0 0.00 0.00 0.00 100 1016.6
20260905133905 38 153 8.0 8.0 0.00 0.00 0.00 100 1016.7
20260905133738 38 153 8.0 8.0 0.00 0.00 0.00 100 1016.7
20260905133238 38 156 4.8 6.4 0.00 0.00 0.00 100 1016.6
20260905133033 38 135 0.0 6.4 0.00 0.00 0.00 100 1016.6
20260905132738 38 135 0.0 6.4 0.00 0.00 0.00 100 1016.6
20260905132238 38 171 0.0 4.8 0.00 0.00 0.00 100 1016.7
20260905131738 37 210 3.2 6.4 0.00 0.00 0.00 100 1016.6
20260905131239 37 178 0.0 4.8 0.00 0.00 0.00 100 1016.6
20260905130738 36 230 1.6 6.4 0.00 0.00 0.00 100 1016.6
20260905130713 31 260 6.4 8.0 0.00 0.00 0.00 100 1016.0
20260905130710 31 279 0.0 14.5 0.00 0.00 0.00 100 1016.0
20260905130238 36 180 0.0 8.0 0.00 0.00 0.00 100 1016.6
20260905125738 36 209 3.2 8.0 0.00 0.00 0.00 100 1016.6
20260905125238 35 220 6.4 8.0 0.00 0.00 0.00 100 1016.6
20260905125015 34 268 0.0 6.4 0.00 0.00 0.00 100 1016.5
20260905124738 34 268 0.0 6.4 0.00 0.00 0.00 100 1016.5
20260905124238 31 232 4.8 8.0 0.00 0.00 0.00 100 1016.5
20260905123738 28 215 4.8 8.0 0.00 0.00 0.00 100 1016.3
20260905123651 24 143 0.0 0.0 0.00 0.18 0.00 100 1015.7
20260905123238 28 147 0.0 6.4 0.00 0.00 0.00 100 1016.3
20260905122738 28 147 0.0 0.0 0.00 0.00 0.00 100 1016.3
20260905122238 27 147 0.0 0.0 0.00 0.00 0.00 100 1016.4
20260905121923 27 147 0.0 0.0 0.00 0.00 0.00 100 1016.5
20260905121738 27 147 0.0 0.0 0.00 0.00 0.00 100 1016.5
20260905121238 27 147 0.0 0.0 0.00 0.00 0.00 100 1016.5
20260905120919 26 147 0.0 0.0 0.00 0.00 0.00 100 1016.4
20260905120738 26 147 0.0 0.0 0.00 0.00 0.00 100 1016.4
20260905120238 26 147 0.0 0.0 0.00 0.00 0.00 100 1016.4
20260905115946 26 147 0.0 0.0 0.00 0.00 0.00 100 1016.5
20260905115738 26 147 0.0 0.0 0.00 0.00 0.00 100 1016.5
20260905115238 26 147 0.0 0.0 0.00 0.00 0.00 100 1016.4
20260905114853 25 147 0.0 0.0 0.00 0.00 0.00 100 1016.2
20260905114738 25 147 0.0 0.0 0.00 0.00 0.00 100 1016.2
20260905114238 25 147 0.0 0.0 0.00 0.00 0.00 100 1016.2
20260905113929 25 147 0.0 0.0 0.00 0.00 0.00 100 1016.1
20260905113739 25 147 0.0 0.0 0.00 0.00 0.00 100 1016.1
20260905113506 25 147 0.0 0.0 0.00 0.00 0.00 100 1016.0
20260905113238 25 147 0.0 0.0 0.00 0.00 0.00 100 1016.0
20260905112738 25 147 0.0 0.0 0.00 0.00 0.00 100 1016.0
20260905112239 25 147 0.0 0.0 0.00 0.00 0.00 100 1015.9
20260905111913 25 147 0.0 0.0 0.00 0.00 0.00 100 1016.0
20260905111739 25 147 0.0 0.0 0.00 0.00 0.00 100 1016.0
20260905111239 25 147 0.0 0.0 0.00 0.00 0.00 100 1016.0
20260905110956 25 147 0.0 0.0 0.00 0.00 0.00 100 1016.0
20260905110739 25 147 0.0 0.0 0.00 0.00 0.00 100 1016.0
20260905110239 25 147 0.0 0.0 0.00 0.00 0.00 100 1016.0
20260905105739 25 147 0.0 0.0 0.00 0.00 0.00 100 1015.9
20260905105239 25 147 0.0 0.0 0.00 0.00 0.00 100 1015.9
20260905104930 25 147 0.0 0.0 0.00 0.00 0.00 100 1015.9
20260905104739 25 147 0.0 0.0 0.00 0.00 0.00 100 1015.9
20260905104239 25 147 0.0 0.0 0.00 0.00 0.00 100 1015.8
20260905103939 25 147 0.0 0.0 0.00 0.00 0.00 100 1015.8
20260905103739 25 147 0.0 0.0 0.00 0.00 0.00 100 1015.8
20260905103239 25 147 0.0 0.0 0.00 0.00 0.00 100 1015.8
20260905103112 25 147 0.0 0.0 0.00 0.00 0.00 100 1015.7
20260905102739 25 147 0.0 0.0 0.00 0.00 0.00 100 1015.7
20260905102239 25 147 0.0 0.0 0.00 0.00 0.00 100 1015.6
20260905102005 25 147 0.0 0.0 0.00 0.00 0.00 100 1015.6
20260905101739 25 147 0.0 0.0 0.00 0.00 0.00 100 1015.6
20260905101239 25 147 0.0 0.0 0.00 0.00 0.00 100 1015.7
20260905100931 25 147 0.0 0.0 0.00 0.00 0.00 100 1015.7
20260905100739 25 147 0.0 0.0 0.00 0.00 0.00 100 1015.7
20260905100239 25 147 0.0 0.0 0.00 0.00 0.00 100 1015.8
20260905095957 25 147 0.0 0.0 0.00 0.00 0.00 100 1015.7
20260905095739 25 147 0.0 0.0 0.00 0.00 0.00 100 1015.7
20260905095520 25 147 0.0 0.0 0.00 0.00 0.00 100 1015.7
20260905095239 25 147 0.0 0.0 0.00 0.00 0.00 100 1015.7
20260905095010 25 147 0.0 0.0 0.00 0.00 0.00 100 1015.6
20260905094739 25 147 0.0 0.0 0.00 0.00 0.00 100 1015.6
20260905094508 25 147 0.0 0.0 0.00 0.00 0.00 100 1015.6
20260905094239 25 147 0.0 0.0 0.00 0.00 0.00 100 1015.6
20260905093739 25 147 0.0 0.0 0.00 0.00 0.00 100 1015.4
20260905093543 25 147 0.0 0.0 0.00 0.00 0.00 100 1015.5
20260905093239 25 147 0.0 0.0 0.00 0.00 0.00 100 1015.5
20260905092739 25 147 0.0 0.0 0.00 0.00 0.00 100 1015.4
20260905092239 25 147 0.0 0.0 0.00 0.00 0.00 100 1015.5
20260905091927 25 147 0.0 0.0 0.00 0.00 0.00 100 1015.5
20260905091739 25 147 0.0 0.0 0.00 0.00 0.00 100 1015.5
20260905091532 25 147 0.0 0.0 0.00 0.00 0.00 100 1015.4
20260905091239 25 147 0.0 0.0 0.00 0.00 0.00 100 1015.4
20260905091037 25 147 0.0 0.0 0.00 0.00 0.00 100 1015.4
20260905090739 25 147 0.0 0.0 0.00 0.00 0.00 100 1015.4
20260905090239 25 147 0.0 0.0 0.00 0.00 0.00 100 1015.4
20260905085951 25 147 0.0 0.0 0.00 0.00 0.00 100 1015.4
20260905085739 25 147 0.0 0.0 0.00 0.00 0.00 100 1015.4
20260905085502 25 147 0.0 0.0 0.00 0.00 0.00 100 1015.5
20260905085239 25 147 0.0 0.0 0.00 0.00 0.00 100 1015.5
20260905084739 25 147 0.0 0.0 0.00 0.00 0.00 100 1015.5
20260905084239 25 147 0.0 0.0 0.00 0.00 0.00 100 1015.4
20260905083739 25 147 0.0 0.0 0.00 0.00 0.00 100 1015.4
20260905083239 25 147 0.0 0.0 0.00 0.00 0.00 100 1015.5
20260905082739 25 147 0.0 0.0 0.00 0.00 0.00 100 1015.6
20260905082239 25 147 0.0 0.0 0.00 0.00 0.00 100 1015.5
20260905081940 25 147 0.0 0.0 0.00 0.00 0.00 100 1015.5
20260905081739 25 147 0.0 0.0 0.00 0.00 0.00 100 1015.5
20260905081239 25 147 0.0 0.0 0.00 0.00 0.00 100 1015.5
20260905080739 25 147 0.0 0.0 0.00 0.00 0.00 100 1015.5
20260905080239 25 147 0.0 0.0 0.00 0.00 0.00 100 1015.5
20260905075922 25 147 0.0 0.0 0.00 0.00 0.00 100 1015.5
20260905075739 25 147 0.0 0.0 0.00 0.00 0.00 100 1015.5
20260905075239 25 147 0.0 0.0 0.00 0.00 0.00 100 1015.5
20260905074945 25 147 0.0 0.0 0.00 0.00 0.00 100 1015.6
20260905074739 25 147 0.0 0.0 0.00 0.00 0.00 100 1015.6
20260905074506 25 147 0.0 0.0 0.00 0.00 0.00 100 1015.5
20260905074239 25 147 0.0 0.0 0.00 0.00 0.00 100 1015.5
20260905073919 25 147 0.0 0.0 0.00 0.00 0.00 100 1015.4
20260905073739 25 147 0.0 0.0 0.00 0.00 0.00 100 1015.4
20260905073504 25 147 0.0 0.0 0.00 0.00 0.00 100 1015.5
20260905073239 25 147 0.0 0.0 0.00 0.00 0.00 100 1015.5
20260905072945 25 147 0.0 0.0 0.00 0.00 0.00 100 1015.5
20260905072740 25 147 0.0 0.0 0.00 0.00 0.00 100 1015.5
20260905072240 25 147 0.0 0.0 0.00 0.00 0.00 100 1015.5
20260905071940 26 147 0.0 0.0 0.00 0.00 0.00 100 1015.5
20260905071740 26 147 0.0 0.0 0.00 0.00 0.00 100 1015.5
20260905071240 26 147 0.0 0.0 0.00 0.00 0.00 100 1015.5
20260905070740 26 147 0.0 0.0 0.00 0.00 0.00 100 1015.6
20260905070506 26 147 0.0 0.0 0.00 0.00 0.00 100 1015.5
20260905070240 26 147 0.0 0.0 0.00 0.00 0.00 100 1015.5
20260905065740 26 147 0.0 0.0 0.00 0.00 0.00 100 1015.5
20260905065240 26 147 0.0 0.0 0.00 0.00 0.00 100 1015.7
20260905064949 26 147 0.0 0.0 0.00 0.00 0.00 100 1015.8
20260905064740 26 147 0.0 0.0 0.00 0.00 0.00 100 1015.8
20260905064240 26 147 0.0 0.0 0.00 0.00 0.00 100 1015.8
20260905063908 26 147 0.0 0.0 0.00 0.00 0.00 100 1015.9
20260905063740 26 147 0.0 0.0 0.00 0.00 0.00 100 1015.9
20260905063455 26 147 0.0 0.0 0.00 0.00 0.00 100 1015.9
20260905063240 26 147 0.0 0.0 0.00 0.00 0.00 100 1015.9
20260905062740 26 147 0.0 0.0 0.00 0.00 0.00 100 1015.8
20260905062240 26 147 0.0 0.0 0.00 0.00 0.00 100 1016.0
20260905061740 26 147 0.0 0.0 0.00 0.00 0.00 100 1015.9
20260905061240 26 147 0.0 0.0 0.00 0.00 0.00 100 1016.0
20260905060907 26 147 0.0 0.0 0.00 0.00 0.00 100 1016.1
20260905060740 26 147 0.0 0.0 0.00 0.00 0.00 100 1016.1
20260905060240 26 147 0.0 0.0 0.00 0.00 0.00 100 1016.1
20260905055955 26 147 0.0 0.0 0.00 0.00 0.00 100 1016.1
20260905055740 26 147 0.0 0.0 0.00 0.00 0.00 100 1016.1
20260905055240 26 147 0.0 0.0 0.00 0.00 0.00 100 1016.2
20260905054740 26 147 0.0 0.0 0.00 0.00 0.00 100 1016.3
20260905054240 26 147 0.0 0.0 0.00 0.00 0.00 100 1016.3